CT1EBQ-13 Weather Reports


time (UTC)temp
C
wind
direction
speed
KPH
gust
KPH
rain 1hr
cm
rain 24hr
cm
rain mn
cm
humidity
%
barometer
mb
20260508100438 15 188 14.5 20.9 0.00 0.00 0.00 55 1010.0
20260508094436 15 188 14.5 20.9 0.00 0.00 0.00 55 1010.0
20260508092435 14 187 11.3 19.3 0.00 0.00 0.00 61 1010.0
20260508090435 14 187 11.3 19.3 0.00 0.00 0.00 61 1010.0
20260508084435 14 187 11.3 19.3 0.00 0.00 0.00 61 1010.0
20260508082435 13 255 4.8 4.8 0.00 0.00 0.00 84 1010.0
20260508080434 13 255 4.8 4.8 0.00 0.00 0.00 84 1010.0
20260508074434 13 255 4.8 4.8 0.00 0.00 0.00 84 1010.0
20260508072431 13 255 4.8 4.8 0.00 0.00 0.00 84 1010.0
20260508070430 13 255 4.8 4.8 0.00 0.00 0.00 84 1010.0
20260508064428 13 255 4.8 4.8 0.00 0.00 0.00 84 1010.0
20260508062428 13 255 4.8 4.8 0.00 0.00 0.00 84 1010.0
20260508060427 13 255 4.8 4.8 0.00 0.00 0.00 84 1010.0
20260508054425 13 255 4.8 4.8 0.00 0.00 0.00 84 1010.0
20260508053737 13 255 4.8 4.8 0.00 0.00 0.00 84 1009.0
20260508051736 13 255 4.8 4.8 0.00 0.00 0.00 84 1009.0
20260508045736 13 255 4.8 4.8 0.00 0.00 0.00 84 1009.0
20260508043735 13 255 4.8 4.8 0.00 0.00 0.00 84 1009.0
20260508041734 13 255 4.8 4.8 0.00 0.00 0.00 84 1010.0
20260508035734 13 255 4.8 4.8 0.00 0.00 0.00 84 1010.0
20260508033733 13 255 4.8 4.8 0.00 0.00 0.00 84 1010.0
20260508031732 13 255 4.8 4.8 0.00 0.00 0.00 84 1010.0
20260508025729 13 255 4.8 4.8 0.00 0.00 0.00 84 1010.0
20260508023725 13 255 4.8 4.8 0.00 0.00 0.00 84 1010.0
20260508021724 13 255 4.8 4.8 0.00 0.00 0.00 84 1010.0
20260508015722 13 255 4.8 4.8 0.00 0.00 0.00 84 1010.0
20260508013719 14 332 6.4 16.1 0.00 0.00 0.00 80 1010.0
20260508011718 14 332 6.4 16.1 0.00 0.00 0.00 80 1010.0
20260508005718 14 332 6.4 16.1 0.00 0.00 0.00 80 1010.0
20260508003716 14 332 6.4 16.1 0.00 0.00 0.00 80 1010.0
20260508001715 14 332 6.4 16.1 0.00 0.00 0.00 80 1010.0
20260507235715 14 332 6.4 16.1 0.00 0.00 0.00 80 1010.0
20260507233714 14 332 6.4 16.1 0.00 0.00 0.00 80 1010.0
20260507231712 14 332 6.4 16.1 0.00 0.00 0.00 80 1011.0
20260507225712 14 332 6.4 16.1 0.00 0.00 0.00 80 1011.0
20260507223711 14 332 6.4 16.1 0.00 0.00 0.00 80 1011.0
20260507221710 14 332 6.4 16.1 0.00 0.00 0.00 80 1011.0
20260507215709 14 332 6.4 16.1 0.00 0.00 0.00 80 1011.0
20260507213709 15 283 6.4 11.3 0.00 0.00 0.00 79 1011.0
20260507211706 15 283 6.4 11.3 0.00 0.00 0.00 79 1012.0
20260507205705 15 283 6.4 11.3 0.00 0.00 0.00 79 1012.0
20260507203703 15 332 11.3 24.1 0.00 0.00 0.00 76 1012.0
20260507201702 15 332 11.3 24.1 0.00 0.00 0.00 76 1011.0
20260507195702 16 332 11.3 24.1 0.00 0.00 0.00 76 1011.0
20260507193702 16 315 14.5 25.7 0.00 0.00 0.00 70 1011.0
20260507191702 16 315 14.5 25.7 0.00 0.00 0.00 70 1010.0
20260507185701 17 315 14.5 25.7 0.00 0.00 0.00 70 1010.0
20260507183701 18 296 17.7 24.1 0.00 0.00 0.00 63 1009.0
20260507181659 18 296 17.7 24.1 0.00 0.00 0.00 63 1009.0
20260507175652 19 296 17.7 24.1 0.00 0.00 0.00 63 1009.0
20260507173651 21 294 24.1 22.5 0.00 0.00 0.00 54 1009.0
20260507171703 21 294 24.1 22.5 0.00 0.00 0.00 54 1008.0
20260507165701 21 294 24.1 22.5 0.00 0.00 0.00 54 1008.0
20260507163700 21 231 14.5 16.1 0.00 0.00 0.00 36 1008.0
20260507161658 21 231 14.5 16.1 0.00 0.00 0.00 36 1008.0
20260507155657 21 231 14.5 16.1 0.00 0.00 0.00 36 1008.0
20260507153657 21 231 14.5 16.1 0.00 0.00 0.00 36 1008.0
20260507151656 21 231 14.5 16.1 0.00 0.00 0.00 36 1008.0
20260507145655 21 231 14.5 16.1 0.00 0.00 0.00 36 1008.0
20260507143654 21 231 14.5 16.1 0.00 0.00 0.00 36 1009.0
20260507141653 21 231 14.5 16.1 0.00 0.00 0.00 36 1009.0
20260507135653 21 231 14.5 16.1 0.00 0.00 0.00 36 1009.0
20260507133651 19 279 9.7 8.0 0.00 0.00 0.00 50 1009.0
20260507131649 19 279 9.7 8.0 0.00 0.00 0.00 50 1009.0
20260507125647 19 279 9.7 8.0 0.00 0.00 0.00 50 1009.0
20260507123645 19 279 9.7 8.0 0.00 0.00 0.00 50 1009.0
20260507121644 19 279 9.7 8.0 0.00 0.00 0.00 50 1009.0
20260507115642 19 279 9.7 8.0 0.00 0.00 0.00 50 1009.0
20260507113641 19 279 9.7 8.0 0.00 0.00 0.00 50 1009.0
20260507111640 19 279 9.7 8.0 0.00 0.00 0.00 50 1010.0
20260507105638 19 279 9.7 8.0 0.00 0.00 0.00 50 1010.0
20260507103637 19 279 9.7 8.0 0.00 0.00 0.00 50 1010.0
20260507101636 19 279 9.7 8.0 0.00 0.00 0.00 50 1010.0